Location: ??
(34.7707°N, 135.6540°E)
Time: 21:55:18
(UTC+00:00)

Lacrosse 5 - Pass Details

Date: 09 April 2020
Orbit: 715 x 724 km, 57.0° (Epoch: 21 May)

Event Time Altitude Azimuth Distance (km) Brightness Sun altitude
Exits shadow 18:42:18 - 167° (SSE) 2,794 4.8 -22.2°
Reaches altitude 10° 18:44:46 10° 147° (SSE) 2,184 4.4 -21.7°
Maximum altitude 18:47:18 14° 117° (ESE) 1,928 4.5 -21.3°
Drops below altitude 10° 18:49:51 10° 86° (E) 2,191 5.3 -20.8°
Sets 18:53:19 0° 62° (ENE) 3,116 6.8 -20.1°
